Regional Weather Roundup
Issued by NWS

Home | Current Version | Previous Version | Graphics & Text | Print | Product List | Glossary On
Versions: 1 2 3 4 5 6 7 8 9 10 11 12 13 14 15 16 17 18 19 20 21 22 23 24 25 26 27 28 29 30 31 32 33 34 35 36 37 38 39 40 41 42 43 44 45 46 47 48 49 50
936
ASUS44 KLIX 312107
RWRLA
LOUISIANA WEATHER ROUNDUP
NATIONAL WEATHER SERVICE NEW ORLEANS LA
400 PM CDT TUE MAR 31 2015

NOTE: "FAIR" INDICATES FEW OR NO CLOUDS BELOW 12,000 FEET WITH NO
      SIGNIFICANT WEATHER AND/OR OBSTRUCTIONS TO VISIBILITY.
      SKY/WX - SKY CONDITION AND SIGNIFICANT WEATHER.
      TMP - AIR TEMPERATURE.    DP   - DEWPOINT TEMPERATURE.
      RH  - RELATIVE HUMIDITY.  PRES - PRESSURE.
      HX  - HEAT INDEX.         WCI  - WIND CHILL INDEX.

*  THESE STATIONS ARE NOT NWS OR FAA STATIONS AND ARE NOT UNDER
   NWS QUALITY CONTROL.

LAZ040-048-061>063-065-066-069-312200-
SOUTHEAST LOUISIANA

CITY           SKY/WX    TMP DP  RH WIND       PRES   REMARKS
N.O. AUDUBON     N/A     84  69  61 MISG        N/A
N.O. INTL ARPT PTSUNNY   81  60  48 W20       30.03F
N.O. LAKEFRONT PTSUNNY   80  63  55 W9        30.04F
SLIDELL        MOSUNNY   81  61  50 W10G18    30.02F
BATON ROUGE    MOSUNNY   80  60  50 SW16G22   30.02F
BOOTHVILLE     MOSUNNY   78  66  66 SW12      30.08F
BELLE CHASSE   PTSUNNY   79  61  53 SW20      30.03F
BOGALUSA*        N/A     84  57  39 SW10G20   30.03F
GALLIANO*      PTCLDY    81  64  55 MISG      30.07F
NEW ROADS*     MOCLDY    79  59  50 SW10      30.02F
GONZALES*      FAIR      80  60  50 S9G20     30.03F
HAMMOND*       PTSUNNY   82  55  39 SW14      30.04F
HOUMA*         PTSUNNY   79  64  61 SW17      30.06F
PORT FOURCHON* PTCLDY    79  64  61 SW12      30.10F

$$

LAZ041-044-053-054-312200-
SOUTHWEST LOUISIANA

CITY           SKY/WX    TMP DP  RH WIND       PRES   REMARKS
LAKE CHARLES   MOSUNNY   77  63  61 SW14G25   30.03F
LAFAYETTE      MOSUNNY   80  58  46 SW16G23   30.03F
PATTERSON      MOSUNNY   79  63  57 W17G23    30.07F
SALT POINT       N/A     75  69  81 SW7       30.05F
NEW IBERIA     PTSUNNY   80  61  52 SW15      30.05F
CHENAULT AIRPK NOT AVBL

$$

LAZ027-028-312200-
CENTRAL LOUISIANA

CITY           SKY/WX    TMP DP  RH WIND       PRES   REMARKS
FORT POLK      SUNNY     81  59  47 SW7G18    29.98F
ALEXANDRIA INT MOSUNNY   82  58  43 SW15      29.97F
ALEXANDRIA     MOSUNNY   82  58  43 SW9       29.98F

$$

LAZ001-002-312200-
NORTHWEST LOUISIANA

CITY           SKY/WX    TMP DP  RH WIND       PRES   REMARKS
SHREVEPORT     MOSUNNY   79  62  56 VRB6      29.95F
BARKSDALE AFB  PTSUNNY   78  62  56 SW5       29.95F
DTN SHREVEPORT SUNNY     76  62  62 W7        29.96F

$$

LAZ014-016-312200-
NORTHEAST LOUISIANA

CITY           SKY/WX    TMP DP  RH WIND       PRES   REMARKS
MONROE         MOSUNNY   83  60  45 SW16      29.95F
TALLULAH       SUNNY     81  58  45 S15G25    29.95F

$$




USA.gov is the U.S. government's official web portal to all federal, state and local government web resources and services.